Flag for U.S.A. Weather past 2 weeks in Billings, Montana, U.S.A.

Now
32 °F

Clear.


Feels Like: 24 °F
Forecast: 29 / 47 °F
Wind: 10 mph from Southwest

Location: Billings Logan International Airport

Current Time: Jan 30, 2015 at 7:52:23 AM

Latest Report: Jan 30, 2015 at 6:53 AM


Visibility: 10 mi

Pressure: 30.28 "Hg

Humidity: 69%

Dew point: 23 °F

Location of BillingsLocation

Historic Weather in Billings — Graph

°F

Billings temperature yesterday

Maximum temperature yesterday: 50 °F (at 3:53 PM)
Minimum temperature yesterday: 26 °F (at 7:53 AM)
Average temperature yesterday: 37 °F

Past Weeks' High & Low Weather Summary

 TemperatureHumidityPressure
High66 °F (Jan 27, 1:53 PM)88% (Jan 29, 7:53 AM)30.49 "Hg (Jan 29, 7:53 AM)
Low26 °F (Jan 21, 5:53 AM)26% (Jan 27, 12:53 PM)29.76 "Hg (Jan 16, 12:53 PM)
Average40 °F52%30.12 "Hg
* Reported Jan 15 5:53 AM — Jan 30 5:53 AM, Billings, Weather by CustomWeather, © 2014

Note: Actual official high and low records may vary slightly from our data, if they occured in-between our weather recording intervals... More about our weather records

Advertising

Billings weather history for previous 24 hours

 ConditionsComfort  
Time TempWeatherWind HumidityBarometerVisibility
5:53 AM
Jan 30
32 °FClear.13 mph73%30.27 "Hg10 mi
4:53 AM32 °FClear.13 mph79%30.26 "Hg10 mi
3:53 AM38 °FPassing clouds.15 mph65%30.23 "Hg10 mi
2:53 AM35 °FPassing clouds.15 mph75%30.25 "Hg10 mi
1:53 AM37 °FPassing clouds.17 mph70%30.25 "Hg10 mi
12:53 AM36 °FPassing clouds.14 mph73%30.26 "Hg10 mi
11:53 PM
Jan 29
36 °FPassing clouds.13 mph70%30.28 "Hg10 mi
10:53 PM37 °FPassing clouds.12 mph67%30.30 "Hg10 mi
9:53 PM39 °FClear.14 mph62%30.31 "Hg10 mi
8:53 PM40 °FClear.18 mph63%30.31 "Hg10 mi
7:53 PM40 °FPassing clouds.17 mph63%30.32 "Hg10 mi
6:53 PM41 °FPassing clouds.13 mph58%30.32 "Hg10 mi
5:53 PM42 °FPassing clouds.12 mph57%30.32 "Hg10 mi
4:53 PM46 °FPassing clouds.10 mph48%30.32 "Hg10 mi
3:53 PM50 °FPassing clouds.16 mph38%30.30 "Hg10 mi
2:53 PM49 °FPassing clouds.9 mph41%30.31 "Hg10 mi
1:53 PM47 °FPassing clouds.8 mph46%30.34 "Hg10 mi
12:53 PM44 °FPassing clouds.No wind49%30.38 "Hg10 mi
11:53 AM40 °FSunny.7 mph60%30.43 "Hg10 mi
10:53 AM37 °FSunny.10 mph62%30.46 "Hg10 mi
9:53 AM32 °FSunny.9 mph75%30.48 "Hg10 mi
8:53 AM29 °FSunny.9 mph82%30.49 "Hg10 mi
7:53 AM26 °FSunny.12 mph88%30.49 "Hg10 mi
Weather by CustomWeather, © 2014

See weather overviewHow to use our weather pages